• In Deutschland
  • Länderverzeichnis
  • Für 7 Tage
  • Wassertemperatur
  • Satellitenkarten
  • Wetterkarte
  • Widgets
  • user-avatar
    Anmelden

    Stündliche Wetter Annaba

    Heute, 23 November, Donnerstag

    Zeit Temperatur Niederschläge Wind Luftdruck Luftfeuchtigkeit
    00:00 +17°C° 0 mm 2 m/S 761 mmHg 42%
    01:00 +16°C° 0 mm 2 m/S 761 mmHg 42%
    02:00 +16°C° 0 mm 2 m/S 761 mmHg 43%
    03:00 +16°C° 0 mm 2 m/S 761 mmHg 43%
    04:00 +16°C° 0 mm 2 m/S 760 mmHg 44%
    05:00 +16°C° 0 mm 2 m/S 761 mmHg 44%
    06:00 +16°C° 0 mm 2 m/S 761 mmHg 45%
    07:00 +16°C° 0 mm 2 m/S 761 mmHg 45%
    08:00 +17°C° 0 mm 2 m/S 761 mmHg 44%
    09:00 +18°C° 0 mm 2 m/S 762 mmHg 42%
    10:00 +19°C° 0 mm 2 m/S 762 mmHg 41%
    11:00 +19°C° 0 mm 2 m/S 762 mmHg 40%
    12:00 +20°C° 0 mm 2 m/S 762 mmHg 39%
    13:00 +21°C° 0 mm 3 m/S 762 mmHg 37%
    14:00 +21°C° 0 mm 3 m/S 762 mmHg 41%
    15:00 +20°C° 0 mm 3 m/S 762 mmHg 44%
    16:00 +20°C° 0 mm 3 m/S 762 mmHg 47%
    17:00 +19°C° 0 mm 3 m/S 762 mmHg 52%
    18:00 +18°C° 0 mm 2 m/S 763 mmHg 57%
    19:00 +16°C° 0 mm 2 m/S 763 mmHg 62%
    20:00 +16°C° 0 mm 2 m/S 763 mmHg 63%
    21:00 +16°C° 0 mm 2 m/S 764 mmHg 65%
    22:00 +15°C° 0 mm 2 m/S 764 mmHg 66%
    23:00 +15°C° 0 mm 2 m/S 764 mmHg 66%

    Morgen, 24 November, Freitag

    Zeit Temperatur Niederschläge Wind Luftdruck Luftfeuchtigkeit
    00:00 +15°C° 0 mm 2 m/S 764 mmHg 65%
    01:00 +14°C° 0 mm 2 m/S 764 mmHg 65%
    02:00 +14°C° 0 mm 2 m/S 764 mmHg 64%
    03:00 +14°C° 0 mm 2 m/S 764 mmHg 63%
    04:00 +13°C° 0 mm 2 m/S 764 mmHg 62%
    05:00 +13°C° 0 mm 2 m/S 764 mmHg 61%
    06:00 +13°C° 0 mm 2 m/S 764 mmHg 60%
    07:00 +13°C° 0 mm 2 m/S 764 mmHg 59%
    08:00 +15°C° 0 mm 2 m/S 765 mmHg 54%
    09:00 +16°C° 0 mm 2 m/S 765 mmHg 50%
    10:00 +18°C° 0 mm 2 m/S 765 mmHg 46%
    11:00 +19°C° 0 mm 2 m/S 765 mmHg 42%
    12:00 +21°C° 0 mm 1 m/S 765 mmHg 39%
    13:00 +22°C° 0 mm 1 m/S 764 mmHg 36%
    14:00 +22°C° 0 mm 1 m/S 764 mmHg 39%
    15:00 +22°C° 0 mm 1 m/S 764 mmHg 41%
    16:00 +21°C° 0 mm 1 m/S 764 mmHg 43%
    17:00 +20°C° 0 mm 1 m/S 764 mmHg 49%
    18:00 +18°C° 0 mm 1 m/S 764 mmHg 55%
    19:00 +16°C° 0 mm 1 m/S 765 mmHg 60%
    20:00 +15°C° 0 mm 1 m/S 765 mmHg 60%
    21:00 +15°C° 0 mm 2 m/S 765 mmHg 60%
    22:00 +15°C° 0 mm 2 m/S 765 mmHg 60%
    23:00 +15°C° 0 mm 2 m/S 765 mmHg 58%

    übermorgen, 25 November, Samstag

    Zeit Temperatur Niederschläge Wind Luftdruck Luftfeuchtigkeit
    00:00 +15°C° 0 mm 2 m/S 765 mmHg 56%
    01:00 +14°C° 0 mm 2 m/S 765 mmHg 54%
    02:00 +14°C° 0 mm 2 m/S 765 mmHg 51%
    03:00 +14°C° 0 mm 2 m/S 764 mmHg 49%
    04:00 +14°C° 0 mm 2 m/S 764 mmHg 47%
    05:00 +14°C° 0 mm 2 m/S 764 mmHg 45%
    06:00 +14°C° 0 mm 2 m/S 764 mmHg 43%
    07:00 +13°C° 0 mm 3 m/S 764 mmHg 41%
    08:00 +16°C° 0 mm 2 m/S 764 mmHg 38%
    09:00 +17°C° 0 mm 2 m/S 764 mmHg 36%
    10:00 +19°C° 0 mm 2 m/S 764 mmHg 34%
    11:00 +21°C° 0 mm 2 m/S 764 mmHg 31%
    12:00 +23°C° 0 mm 1 m/S 764 mmHg 29%
    13:00 +25°C° 0 mm 1 m/S 763 mmHg 26%
    14:00 +24°C° 0 mm 1 m/S 763 mmHg 30%
    15:00 +24°C° 0 mm 1 m/S 763 mmHg 33%
    16:00 +23°C° 0 mm 1 m/S 763 mmHg 36%
    17:00 +21°C° 0 mm 1 m/S 763 mmHg 39%
    18:00 +20°C° 0 mm 1 m/S 763 mmHg 42%
    19:00 +18°C° 0 mm 1 m/S 763 mmHg 45%
    20:00 +18°C° 0 mm 1 m/S 764 mmHg 45%
    21:00 +16°C° 0 mm 2 m/S 764 mmHg 44%
    22:00 +16°C° 0 mm 2 m/S 764 mmHg 44%
    23:00 +16°C° 0 mm 2 m/S 764 mmHg 44%

    26 November, Sonntag

    Zeit Temperatur Niederschläge Wind Luftdruck Luftfeuchtigkeit
    00:00 +16°C° 0 mm 2 m/S 764 mmHg 43%
    01:00 +14°C° 0 mm 3 m/S 764 mmHg 42%
    02:00 +14°C° 0 mm 3 m/S 764 mmHg 42%
    03:00 +14°C° 0 mm 3 m/S 764 mmHg 41%
    04:00 +14°C° 0 mm 3 m/S 764 mmHg 41%
    05:00 +14°C° 0 mm 3 m/S 764 mmHg 41%
    06:00 +15°C° 0 mm 2 m/S 764 mmHg 41%
    07:00 +15°C° 0 mm 2 m/S 764 mmHg 42%
    08:00 +16°C° 0 mm 2 m/S 765 mmHg 40%
    09:00 +18°C° 0 mm 2 m/S 765 mmHg 39%
    10:00 +19°C° 0 mm 2 m/S 765 mmHg 38%
    11:00 +20°C° 0 mm 2 m/S 765 mmHg 40%
    12:00 +20°C° 0 mm 3 m/S 765 mmHg 42%
    13:00 +21°C° 0 mm 4 m/S 765 mmHg 44%
    14:00 +20°C° 0 mm 4 m/S 765 mmHg 53%
    15:00 +19°C° 0 mm 4 m/S 765 mmHg 62%
    16:00 +17°C° 0 mm 5 m/S 766 mmHg 70%
    17:00 +17°C° 0,1 mm 4 m/S 766 mmHg 76%
    18:00 +17°C° 0,1 mm 4 m/S 767 mmHg 82%
    19:00 +15°C° 0,1 mm 4 m/S 767 mmHg 87%
    20:00 +14°C° 0,1 mm 5 m/S 767 mmHg 87%
    21:00 +14°C° 0,1 mm 5 m/S 768 mmHg 86%
    22:00 +14°C° 0,1 mm 5 m/S 768 mmHg 85%
    23:00 +14°C° 0,1 mm 5 m/S 768 mmHg 84%

    27 November, Montag

    Zeit Temperatur Niederschläge Wind Luftdruck Luftfeuchtigkeit
    00:00 +14°C° 0,1 mm 5 m/S 768 mmHg 83%
    01:00 +14°C° 0,1 mm 5 m/S 768 mmHg 82%
    02:00 +13°C° 0 mm 5 m/S 768 mmHg 81%
    03:00 +13°C° 0 mm 5 m/S 768 mmHg 80%
    04:00 +13°C° 0 mm 5 m/S 768 mmHg 78%
    05:00 +13°C° 0 mm 5 m/S 768 mmHg 79%
    06:00 +12°C° 0 mm 5 m/S 768 mmHg 79%
    07:00 +12°C° 0 mm 5 m/S 768 mmHg 80%
    08:00 +13°C° 0 mm 5 m/S 769 mmHg 75%
    09:00 +13°C° 0 mm 6 m/S 769 mmHg 70%
    10:00 +14°C° 0 mm 6 m/S 769 mmHg 65%
    11:00 +14°C° 0 mm 6 m/S 769 mmHg 63%
    12:00 +15°C° 0 mm 6 m/S 769 mmHg 61%
    13:00 +15°C° 0 mm 6 m/S 768 mmHg 59%
    14:00 +14°C° 0 mm 6 m/S 768 mmHg 59%
    15:00 +14°C° 0 mm 6 m/S 768 mmHg 60%
    16:00 +14°C° 0 mm 6 m/S 768 mmHg 61%
    17:00 +13°C° 0 mm 5 m/S 768 mmHg 65%
    18:00 +12°C° 0 mm 5 m/S 769 mmHg 69%
    19:00 +11°C° 0 mm 4 m/S 769 mmHg 73%
    20:00 +11°C° 0,1 mm 4 m/S 769 mmHg 75%
    21:00 +11°C° 0,1 mm 4 m/S 769 mmHg 76%
    22:00 +11°C° 0,1 mm 4 m/S 769 mmHg 77%
    23:00 +11°C° 0,1 mm 4 m/S 769 mmHg 77%

    28 November, Dienstag

    Zeit Temperatur Niederschläge Wind Luftdruck Luftfeuchtigkeit
    00:00 +10°C° 0,1 mm 4 m/S 769 mmHg 76%
    01:00 +10°C° 0,1 mm 4 m/S 769 mmHg 76%
    02:00 +10°C° 0 mm 4 m/S 768 mmHg 75%
    03:00 +10°C° 0 mm 4 m/S 768 mmHg 74%
    04:00 +10°C° 0 mm 4 m/S 768 mmHg 74%
    05:00 +10°C° 0 mm 3 m/S 768 mmHg 75%
    06:00 +9°C° 0 mm 3 m/S 768 mmHg 76%
    07:00 +9°C° 0 mm 3 m/S 768 mmHg 77%
    08:00 +11°C° 0 mm 3 m/S 767 mmHg 73%
    09:00 +12°C° 0 mm 3 m/S 767 mmHg 68%
    10:00 +13°C° 0 mm 3 m/S 767 mmHg 63%
    11:00 +14°C° 0 mm 3 m/S 767 mmHg 58%
    12:00 +16°C° 0 mm 3 m/S 766 mmHg 54%
    13:00 +17°C° 0 mm 2 m/S 765 mmHg 49%
    14:00 +17°C° 0 mm 2 m/S 765 mmHg 50%
    15:00 +17°C° 0 mm 2 m/S 764 mmHg 50%
    16:00 +16°C° 0 mm 2 m/S 764 mmHg 51%
    17:00 +15°C° 0 mm 2 m/S 764 mmHg 58%
    18:00 +14°C° 0 mm 2 m/S 764 mmHg 64%
    19:00 +12°C° 0 mm 1 m/S 764 mmHg 71%
    20:00 +12°C° 0 mm 1 m/S 764 mmHg 72%
    21:00 +12°C° 0 mm 2 m/S 764 mmHg 73%
    22:00 +10°C° 0 mm 2 m/S 764 mmHg 74%
    23:00 +10°C° 0 mm 2 m/S 764 mmHg 73%
    Mehr zeigen